• In United Kingdom
  • List of Countries
  • For 7 days
  • Water Temperature
  • Satellite Maps
  • Weather Map
  • Weather Widgets
  • user-avatar
    Login

    Hourly Weather San Luis

    Today, 17 January, Wednesday

    Time Temperature Precipitation Wind Pressure Humidity
    00:00 +22°C° 0.4 mm 3 mps 698 mmHg 62%
    01:00 +22°C° 0.4 mm 3 mps 698 mmHg 64%
    02:00 +21°C° 0.4 mm 3 mps 698 mmHg 66%
    03:00 +21°C° 1.1 mm 3 mps 698 mmHg 68%
    04:00 +20°C° 1.1 mm 2 mps 698 mmHg 70%
    05:00 +20°C° 1.1 mm 2 mps 698 mmHg 73%
    06:00 +21°C° 0.7 mm 2 mps 699 mmHg 67%
    07:00 +24°C° 0.7 mm 2 mps 699 mmHg 61%
    08:00 +25°C° 0.7 mm 2 mps 700 mmHg 55%
    09:00 +27°C° 0.7 mm 2 mps 700 mmHg 50%
    10:00 +28°C° 0.7 mm 3 mps 700 mmHg 45%
    11:00 +29°C° 0.7 mm 3 mps 700 mmHg 41%
    12:00 +29°C° 0.1 mm 3 mps 700 mmHg 39%
    13:00 +30°C° 0.1 mm 3 mps 699 mmHg 36%
    14:00 +30°C° 0.1 mm 3 mps 699 mmHg 34%
    15:00 +31°C° 0 mm 3 mps 698 mmHg 33%
    16:00 +31°C° 0 mm 3 mps 698 mmHg 32%
    17:00 +33°C° 0 mm 4 mps 698 mmHg 31%
    18:00 +30°C° 0 mm 4 mps 698 mmHg 34%
    19:00 +29°C° 0 mm 4 mps 698 mmHg 37%
    20:00 +27°C° 0 mm 4 mps 698 mmHg 40%
    21:00 +26°C° 0 mm 4 mps 698 mmHg 42%
    22:00 +26°C° 0 mm 3 mps 698 mmHg 44%
    23:00 +25°C° 0 mm 3 mps 699 mmHg 46%

    Tomorrow, 18 January, Thursday

    Time Temperature Precipitation Wind Pressure Humidity
    00:00 +24°C° 0 mm 3 mps 699 mmHg 47%
    01:00 +24°C° 0 mm 3 mps 698 mmHg 48%
    02:00 +24°C° 0 mm 2 mps 698 mmHg 49%
    03:00 +23°C° 0.1 mm 2 mps 698 mmHg 50%
    04:00 +23°C° 0.1 mm 2 mps 698 mmHg 50%
    05:00 +23°C° 0.1 mm 2 mps 698 mmHg 51%
    06:00 +25°C° 0 mm 2 mps 699 mmHg 46%
    07:00 +26°C° 0 mm 2 mps 700 mmHg 41%
    08:00 +28°C° 0 mm 2 mps 701 mmHg 36%
    09:00 +30°C° 0 mm 2 mps 701 mmHg 31%
    10:00 +31°C° 0 mm 2 mps 701 mmHg 27%
    11:00 +33°C° 0 mm 3 mps 701 mmHg 22%
    12:00 +34°C° 0 mm 3 mps 701 mmHg 21%
    13:00 +35°C° 0 mm 3 mps 700 mmHg 19%
    14:00 +36°C° 0 mm 4 mps 700 mmHg 17%
    15:00 +36°C° 0 mm 4 mps 699 mmHg 17%
    16:00 +36°C° 0 mm 4 mps 699 mmHg 16%
    17:00 +36°C° 0 mm 4 mps 698 mmHg 16%
    18:00 +34°C° 0 mm 4 mps 698 mmHg 19%
    19:00 +32°C° 0 mm 4 mps 698 mmHg 22%
    20:00 +29°C° 0 mm 5 mps 698 mmHg 25%
    21:00 +29°C° 0 mm 5 mps 698 mmHg 27%
    22:00 +28°C° 0 mm 5 mps 699 mmHg 29%
    23:00 +27°C° 0 mm 5 mps 699 mmHg 31%

    Day after tomorrow, 19 January, Friday

    Time Temperature Precipitation Wind Pressure Humidity
    00:00 +27°C° 0 mm 5 mps 699 mmHg 31%
    01:00 +27°C° 0 mm 5 mps 699 mmHg 32%
    02:00 +26°C° 0 mm 5 mps 698 mmHg 32%
    03:00 +26°C° 0 mm 5 mps 698 mmHg 38%
    04:00 +25°C° 0 mm 5 mps 698 mmHg 44%
    05:00 +25°C° 0 mm 5 mps 698 mmHg 50%
    06:00 +26°C° 0 mm 5 mps 699 mmHg 47%
    07:00 +28°C° 0 mm 5 mps 699 mmHg 45%
    08:00 +29°C° 0 mm 5 mps 700 mmHg 42%
    09:00 +32°C° 0 mm 5 mps 700 mmHg 37%
    10:00 +33°C° 0 mm 5 mps 700 mmHg 32%
    11:00 +35°C° 0 mm 4 mps 701 mmHg 27%
    12:00 +35°C° 0 mm 4 mps 700 mmHg 26%
    13:00 +35°C° 0 mm 4 mps 699 mmHg 24%
    14:00 +35°C° 0 mm 3 mps 699 mmHg 23%
    15:00 +36°C° 0 mm 3 mps 698 mmHg 22%
    16:00 +36°C° 0 mm 3 mps 697 mmHg 22%
    17:00 +36°C° 0 mm 2 mps 697 mmHg 22%
    18:00 +34°C° 0.1 mm 3 mps 696 mmHg 25%
    19:00 +31°C° 0.1 mm 3 mps 696 mmHg 29%
    20:00 +29°C° 0.1 mm 3 mps 696 mmHg 32%
    21:00 +28°C° 0.1 mm 4 mps 696 mmHg 35%
    22:00 +28°C° 0.1 mm 4 mps 696 mmHg 39%
    23:00 +27°C° 0.1 mm 4 mps 697 mmHg 42%

    20 January, Saturday

    Time Temperature Precipitation Wind Pressure Humidity
    00:00 +27°C° 0.2 mm 5 mps 696 mmHg 42%
    01:00 +26°C° 0.2 mm 5 mps 696 mmHg 42%
    02:00 +26°C° 0.2 mm 6 mps 696 mmHg 43%
    03:00 +26°C° 0.3 mm 6 mps 696 mmHg 48%
    04:00 +24°C° 0.3 mm 6 mps 696 mmHg 53%
    05:00 +25°C° 0.3 mm 5 mps 696 mmHg 59%
    06:00 +25°C° 0.2 mm 5 mps 696 mmHg 60%
    07:00 +25°C° 0.2 mm 4 mps 696 mmHg 61%
    08:00 +25°C° 0.2 mm 3 mps 697 mmHg 62%
    09:00 +26°C° 1 mm 3 mps 697 mmHg 58%
    10:00 +27°C° 1 mm 4 mps 697 mmHg 55%
    11:00 +27°C° 1 mm 4 mps 697 mmHg 51%
    12:00 +27°C° 1.9 mm 4 mps 696 mmHg 55%
    13:00 +26°C° 1.9 mm 4 mps 696 mmHg 59%
    14:00 +25°C° 1.9 mm 4 mps 696 mmHg 63%
    15:00 +25°C° 1.5 mm 4 mps 695 mmHg 61%
    16:00 +25°C° 1.5 mm 4 mps 695 mmHg 58%
    17:00 +25°C° 1.5 mm 4 mps 695 mmHg 56%
    18:00 +25°C° 0.4 mm 3 mps 695 mmHg 60%
    19:00 +24°C° 0.4 mm 2 mps 695 mmHg 63%
    20:00 +23°C° 0.4 mm 1 mps 695 mmHg 67%
    21:00 +23°C° 0.8 mm 2 mps 695 mmHg 67%
    22:00 +21°C° 0.8 mm 2 mps 695 mmHg 68%
    23:00 +21°C° 0.8 mm 2 mps 695 mmHg 69%

    21 January, Sunday

    Time Temperature Precipitation Wind Pressure Humidity
    00:00 +21°C° 0.7 mm 2 mps 695 mmHg 71%
    01:00 +21°C° 0.7 mm 2 mps 695 mmHg 73%
    02:00 +21°C° 0.7 mm 2 mps 694 mmHg 74%
    03:00 +21°C° 0.1 mm 2 mps 694 mmHg 75%
    04:00 +20°C° 0.1 mm 2 mps 694 mmHg 75%
    05:00 +20°C° 0.1 mm 2 mps 694 mmHg 75%
    06:00 +21°C° 0 mm 2 mps 694 mmHg 70%
    07:00 +23°C° 0 mm 2 mps 695 mmHg 64%
    08:00 +25°C° 0 mm 2 mps 695 mmHg 59%
    09:00 +26°C° 0 mm 2 mps 695 mmHg 53%
    10:00 +28°C° 0 mm 2 mps 695 mmHg 48%
    11:00 +29°C° 0 mm 2 mps 695 mmHg 42%
    12:00 +30°C° 0 mm 2 mps 695 mmHg 38%
    13:00 +31°C° 0 mm 2 mps 694 mmHg 35%
    14:00 +32°C° 0 mm 2 mps 694 mmHg 31%
    15:00 +32°C° 0 mm 2 mps 694 mmHg 30%
    16:00 +33°C° 0 mm 3 mps 693 mmHg 28%
    17:00 +34°C° 0 mm 3 mps 693 mmHg 27%
    18:00 +31°C° 0 mm 3 mps 693 mmHg 32%
    19:00 +30°C° 0 mm 3 mps 693 mmHg 36%
    20:00 +28°C° 0 mm 4 mps 693 mmHg 41%
    21:00 +27°C° 0.1 mm 4 mps 693 mmHg 46%
    22:00 +26°C° 0.1 mm 4 mps 694 mmHg 52%
    23:00 +25°C° 0.1 mm 4 mps 694 mmHg 58%

    22 January, Monday

    Time Temperature Precipitation Wind Pressure Humidity
    00:00 +24°C° 0 mm 3 mps 693 mmHg 59%
    01:00 +24°C° 0 mm 3 mps 693 mmHg 61%
    02:00 +22°C° 0 mm 3 mps 693 mmHg 62%
    03:00 +22°C° 0.1 mm 3 mps 693 mmHg 64%
    04:00 +22°C° 0.1 mm 3 mps 693 mmHg 65%
    05:00 +21°C° 0.1 mm 3 mps 693 mmHg 67%
    06:00 +24°C° 0 mm 2 mps 693 mmHg 61%
    07:00 +26°C° 0 mm 2 mps 694 mmHg 56%
    08:00 +27°C° 0 mm 2 mps 694 mmHg 51%
    09:00 +29°C° 0 mm 2 mps 694 mmHg 44%
    10:00 +30°C° 0 mm 2 mps 694 mmHg 37%
    11:00 +32°C° 0 mm 1 mps 694 mmHg 31%
    12:00 +33°C° 0 mm 1 mps 694 mmHg 29%
    13:00 +34°C° 0 mm 1 mps 693 mmHg 26%
    14:00 +34°C° 0 mm 1 mps 693 mmHg 24%
    15:00 +34°C° 0 mm 1 mps 693 mmHg 25%
    16:00 +34°C° 0 mm 1 mps 692 mmHg 26%
    17:00 +34°C° 0 mm 1 mps 692 mmHg 27%
    18:00 +32°C° 0 mm 1 mps 692 mmHg 30%
    19:00 +31°C° 0 mm 2 mps 692 mmHg 32%
    20:00 +30°C° 0 mm 2 mps 692 mmHg 35%
    21:00 +28°C° 0.2 mm 3 mps 692 mmHg 39%
    22:00 +27°C° 0.2 mm 3 mps 693 mmHg 44%
    23:00 +26°C° 0.2 mm 3 mps 693 mmHg 48%
    Show more